Location: ???????????
(55.5758°N, 38.4970°E)
Time: 17:29:04
(UTC+00:00)

Cosmos 2322 Rocket - Pass Details

Date: 15 November 2025
Orbit: 830 x 851 km, 71.0° (Epoch: 14 December)

Event Time Altitude Azimuth Distance (km) Brightness Sun altitude
Exits shadow 02:16:10 23° 334° (NNW) 1,749 3.6 -22.8°
Maximum altitude 02:16:19 23° 336° (NNW) 1,749 3.6 -22.8°
Drops below altitude 10° 02:20:47 10° 28° (NNE) 2,491 5.0 -22.2°
Sets 02:23:48 0° 43° (NE) 3,430 6.0 -21.8°
